Regional Weather Roundup
Issued by NWS Newport/Morehead, NC

Current Version | Previous Version | Text Only | Print | Product List | Glossary Off
Versions: 1 2 3 4 5 6 7 8 9 10 11 12 13 14 15 16 17 18 19 20 21 22 23 24 25 26 27 28 29 30 31 32 33 34 35 36 37 38 39 40 41 42 43 44 45 46 47 48 49 50
412 ASUS42 KMHX 270313 RWRMHX WEATHER ROUNDUP FOR EASTERN NORTH CAROLINA NATIONAL WEATHER SERVICE NEWPORT/MOREHEAD CITY NC 1100 PM EDT THU MAY 26 2016 NOTE: "FAIR" INDICATES FEW OR NO CLOUDS BELOW 12,000 FEET WITH NO SIGNIFICANT WEATHER AND/OR OBSTRUCTIONS TO VISIBILITY NCZ015>017-031-032-045>047-102-103-270400- NORTH COAST CITY SKY/WX TMP DP RH WIND PRES REMARKS EDENTON CLEAR N/A N/A N/A S10 30.16R ELIZABETH CITY CLEAR 72 66 81 S12 30.15R KITTY HAWK CLEAR 72 64 76 SW6 30.16R MANTEO NOT AVBL $$ NCZ045>047-081-094-103-104-270400- CENTRAL COAST CITY SKY/WX TMP DP RH WIND PRES REMARKS FRISCO CLEAR 73 65 75 SW6 30.18R $$ NCZ095-097-098-100-101-270400- SOUTHERN COAST CITY SKY/WX TMP DP RH WIND PRES REMARKS BEAUFORT CLEAR 72 66 81 S7 30.18R CEDAR ISLAND NOT AVBL JACKSONVILLE CLEAR 71 65 81 CALM 30.17R PINEY ISLAND CLEAR N/A N/A N/A S3 30.18R WILMINGTON CLEAR 70 64 81 S3 30.17R $$ NCZ011>013-027>030-043-044-078>080-089-090>093-098-270400- COASTAL PLAIN CITY SKY/WX TMP DP RH WIND PRES REMARKS AHOSKIE CLEAR 73 64 73 S9 30.13R CLINTON CLEAR 73 65 76 S3 30.16R ELIZABETHTOWN PTCLDY 71 64 77 S6 30.16S GOLDSBORO PTCLDY 74 67 79 S8 30.14R GREENVILLE CLEAR 73 63 68 S12 30.16R HAVELOCK CLEAR 70 62 76 S6 30.18R KENANSVILLE CLEAR 70 62 77 CALM 30.17R KINSTON PTCLDY 73 61 67 S8 30.16S NEW BERN PTCLDY 69 64 84 SW3 30.18R RICHLANDS CLEAR 68 65 90 S3 30.17S FOG ROCKY MOUNT CLEAR 75 64 68 S8 30.13R WASHINGTON CLEAR 72 63 75 S6 30.16R WHITEVILLE CLEAR 71 65 81 CALM 30.16R $$ AMZ130-135-150-152-154-156-158-170-250-252-270-ANZ085-086-088-633-658-670-270400- MARINE OBSERVATIONS STATION/POSITION TIME TEMP WIND PRES WAVE SWELL AIR SEA DIR/SP/G HT/PER HT/PER (UTC) (F) (DEG/KT/KT) (MB) (FT/S) (FT/S) CHESAPEAKE LIGHT 0300 71 190/ 22/ 23 1020.2 64 E VA BEACH 0250 64 59 200/ 10/ 12 1020.9 3/ 8 2/ 8 DUCK 0200 1020.0 2 E DUCK 0211 64 N/A 2/ 8 OREGON INLET 0200 1021.1 13E OREGON INLT 0300 65 N/A 2/ 7 2/ 7 HATTERAS CG 0200 1021.1 DIAMOND BUOY 0250 76 71 180/ 10/ 14 1021.6 2/10 2/10 CAPE LOOKOUT 0300 73 200/ 6/ 6 1021.6 BEAUFORT LAB 0200 1020.9 30 SE NEW RVR IN 0225 75 N/A 2/ 8 27 SE WRIGHTSVLE 0208 76 74 180/ 10/ 14 1021.4 5 SE WRIGHTSVLE NOT AVBL 225 S CAPE HAT 0250 76 78 80/ 14/ 16 1020.6 3/ 5 2/ 8 41 SE CHARLESTON 0250 78 77 120/ 12/ 14 1020.8 2/ 9 2/ 9 $$

USA.gov is the U.S. government's official web portal to all federal, state and local government web resources and services.